owner,sensor,date,latitude,longitude,vertical_datum,sea_water_practical_salinity,qcFlag 
SCCF RECON,ioos:station:SCCF:12:1,2011-04-01T00:00:00Z,26.4966,-82.1479,1.94,34.15,1111122 
SCCF RECON,ioos:station:SCCF:12:1,2011-04-01T01:00:00Z,26.4966,-82.1479,2.08,34.11,1111122 
SCCF RECON,ioos:station:SCCF:12:1,2011-04-01T02:00:00Z,26.4966,-82.1479,2.234,34.07,1111122 
SCCF RECON,ioos:station:SCCF:12:1,2011-04-01T03:00:00Z,26.4966,-82.1479,2.312,34.05,1111122 
SCCF RECON,ioos:station:SCCF:12:1,2011-04-01T04:00:00Z,26.4966,-82.1479,2.35,34.04,1111122 
SCCF RECON,ioos:station:SCCF:12:1,2011-04-01T05:00:00Z,26.4966,-82.1479,2.35,34.06,1111122 
SCCF RECON,ioos:station:SCCF:12:1,2011-04-01T06:00:00Z,26.4966,-82.1479,2.26,34.04,1111122 
SCCF RECON,ioos:station:SCCF:12:1,2011-04-01T07:00:00Z,26.4966,-82.1479,2.17,34.0,1111122 
SCCF RECON,ioos:station:SCCF:12:1,2011-04-01T08:00:00Z,26.4966,-82.1479,2.08,34.04,1111122 
SCCF RECON,ioos:station:SCCF:12:1,2011-04-01T09:00:00Z,26.4966,-82.1479,2.011,34.05,1111122 
SCCF RECON,ioos:station:SCCF:12:1,2011-04-01T10:00:00Z,26.4966,-82.1479,1.952,34.02,1111122 
SCCF RECON,ioos:station:SCCF:12:1,2011-04-01T11:00:00Z,26.4966,-82.1479,1.915,34.05,1111122 
SCCF RECON,ioos:station:SCCF:12:1,2011-04-01T12:00:00Z,26.4966,-82.1479,1.921,34.02,1111122 
SCCF RECON,ioos:station:SCCF:12:1,2011-04-01T13:00:00Z,26.4966,-82.1479,1.993,33.98,1111122 
SCCF RECON,ioos:station:SCCF:12:1,2011-04-01T14:00:00Z,26.4966,-82.1479,2.126,33.87,1111122 
SCCF RECON,ioos:station:SCCF:12:1,2011-04-01T15:00:00Z,26.4966,-82.1479,2.241,33.8,1111122 
SCCF RECON,ioos:station:SCCF:12:1,2011-04-01T16:00:00Z,26.4966,-82.1479,2.279,33.78,1111122 
SCCF RECON,ioos:station:SCCF:12:1,2011-04-01T17:00:00Z,26.4966,-82.1479,2.279,33.78,1111122 
SCCF RECON,ioos:station:SCCF:12:1,2011-04-01T18:00:00Z,26.4966,-82.1479,2.201,33.79,1111122 
SCCF RECON,ioos:station:SCCF:12:1,2011-04-01T19:00:00Z,26.4966,-82.1479,2.11,33.82,1111122 
SCCF RECON,ioos:station:SCCF:12:1,2011-04-01T20:00:00Z,26.4966,-82.1479,2.009,33.85,1111122 
SCCF RECON,ioos:station:SCCF:12:1,2011-04-01T21:00:00Z,26.4966,-82.1479,1.929,33.85,1111122 
SCCF RECON,ioos:station:SCCF:12:1,2011-04-01T22:00:00Z,26.4966,-82.1479,1.853,33.79,1111122 
SCCF RECON,ioos:station:SCCF:12:1,2011-04-01T23:00:00Z,26.4966,-82.1479,1.776,33.69,1111122 
SCCF RECON,ioos:station:SCCF:12:1,2011-04-02T00:00:00Z,26.4966,-82.1479,1.73,33.64,1111122 
SCCF RECON,ioos:station:SCCF:12:1,2011-04-02T01:00:00Z,26.4966,-82.1479,1.78,33.65,1111122 
SCCF RECON,ioos:station:SCCF:12:1,2011-04-02T02:00:00Z,26.4966,-82.1479,1.91,33.58,1111122 
SCCF RECON,ioos:station:SCCF:12:1,2011-04-02T03:00:00Z,26.4966,-82.1479,2.042,33.53,1111122 
SCCF RECON,ioos:station:SCCF:12:1,2011-04-02T04:00:00Z,26.4966,-82.1479,2.17,33.56,1111122 
SCCF RECON,ioos:station:SCCF:12:1,2011-04-02T05:00:00Z,26.4966,-82.1479,2.24,33.58,1111122 
SCCF RECON,ioos:station:SCCF:12:1,2011-04-02T06:00:00Z,26.4966,-82.1479,2.247,33.67,1111122 
SCCF RECON,ioos:station:SCCF:12:1,2011-04-02T07:00:00Z,26.4966,-82.1479,2.169,33.67,1111122 
SCCF RECON,ioos:station:SCCF:12:1,2011-04-02T08:00:00Z,26.4966,-82.1479,2.052,33.65,1111122 
SCCF RECON,ioos:station:SCCF:12:1,2011-04-02T09:00:00Z,26.4966,-82.1479,1.95,33.65,1111122 
SCCF RECON,ioos:station:SCCF:12:1,2011-04-02T10:00:00Z,26.4966,-82.1479,1.89,33.66,1111122 
SCCF RECON,ioos:station:SCCF:12:1,2011-04-02T11:00:00Z,26.4966,-82.1479,1.85,33.66,1111122 
SCCF RECON,ioos:station:SCCF:12:1,2011-04-02T12:00:00Z,26.4966,-82.1479,1.851,33.67,1111122 
SCCF RECON,ioos:station:SCCF:12:1,2011-04-02T13:00:00Z,26.4966,-82.1479,1.92,33.68,1111122 
SCCF RECON,ioos:station:SCCF:12:1,2011-04-02T14:00:00Z,26.4966,-82.1479,2.062,33.63,1111122 
SCCF RECON,ioos:station:SCCF:12:1,2011-04-02T15:00:00Z,26.4966,-82.1479,2.191,33.59,1111122 
SCCF RECON,ioos:station:SCCF:12:1,2011-04-02T16:00:00Z,26.4966,-82.1479,2.269,33.63,1111122 
SCCF RECON,ioos:station:SCCF:12:1,2011-04-02T17:00:00Z,26.4966,-82.1479,2.299,33.66,1111122 
SCCF RECON,ioos:station:SCCF:12:1,2011-04-02T18:00:00Z,26.4966,-82.1479,2.273,33.75,1111122 
SCCF RECON,ioos:station:SCCF:12:1,2011-04-02T19:00:00Z,26.4966,-82.1479,2.195,33.64,1111122 
SCCF RECON,ioos:station:SCCF:12:1,2011-04-02T20:00:00Z,26.4966,-82.1479,2.083,33.66,1111122 
SCCF RECON,ioos:station:SCCF:12:1,2011-04-02T21:00:00Z,26.4966,-82.1479,1.964,33.69,1111122 
SCCF RECON,ioos:station:SCCF:12:1,2011-04-02T22:00:00Z,26.4966,-82.1479,1.866,33.7,1111122 
SCCF RECON,ioos:station:SCCF:12:1,2011-04-02T23:00:00Z,26.4966,-82.1479,1.783,33.67,1111122 
SCCF RECON,ioos:station:SCCF:12:1,2011-04-03T00:00:00Z,26.4966,-82.1479,1.73,33.65,1111122 
SCCF RECON,ioos:station:SCCF:12:1,2011-04-03T01:00:00Z,26.4966,-82.1479,1.733,33.66,1111122 
SCCF RECON,ioos:station:SCCF:12:1,2011-04-03T02:00:00Z,26.4966,-82.1479,1.827,33.7,1111122 
SCCF RECON,ioos:station:SCCF:12:1,2011-04-03T03:00:00Z,26.4966,-82.1479,1.98,33.69,1111122 
SCCF RECON,ioos:station:SCCF:12:1,2011-04-03T04:00:00Z,26.4966,-82.1479,2.125,33.69,1111122 
SCCF RECON,ioos:station:SCCF:12:1,2011-04-03T05:00:00Z,26.4966,-82.1479,2.225,33.74,1111122 
SCCF RECON,ioos:station:SCCF:12:1,2011-04-03T06:00:00Z,26.4966,-82.1479,2.27,33.77,1111122 
SCCF RECON,ioos:station:SCCF:12:1,2011-04-03T07:00:00Z,26.4966,-82.1479,2.22,33.69,1111122 
SCCF RECON,ioos:station:SCCF:12:1,2011-04-03T08:00:00Z,26.4966,-82.1479,2.13,33.65,1111122 
SCCF RECON,ioos:station:SCCF:12:1,2011-04-03T09:00:00Z,26.4966,-82.1479,2.031,33.67,1111122 
SCCF RECON,ioos:station:SCCF:12:1,2011-04-03T10:00:00Z,26.4966,-82.1479,1.956,33.67,1111122 
SCCF RECON,ioos:station:SCCF:12:1,2011-04-03T11:00:00Z,26.4966,-82.1479,1.903,33.67,1111122 
SCCF RECON,ioos:station:SCCF:12:1,2011-04-03T12:00:00Z,26.4966,-82.1479,1.854,33.67,1111122 
SCCF RECON,ioos:station:SCCF:12:1,2011-04-03T13:00:00Z,26.4966,-82.1479,1.844,33.72,1111122 
SCCF RECON,ioos:station:SCCF:12:1,2011-04-03T14:00:00Z,26.4966,-82.1479,1.91,33.74,1111122 
SCCF RECON,ioos:station:SCCF:12:1,2011-04-03T15:00:00Z,26.4966,-82.1479,2.026,33.76,1111122 
SCCF RECON,ioos:station:SCCF:12:1,2011-04-03T16:00:00Z,26.4966,-82.1479,2.132,33.78,1111122 
SCCF RECON,ioos:station:SCCF:12:1,2011-04-03T17:00:00Z,26.4966,-82.1479,2.209,33.74,1111122 
SCCF RECON,ioos:station:SCCF:12:1,2011-04-03T18:00:00Z,26.4966,-82.1479,2.236,33.72,1111122 
SCCF RECON,ioos:station:SCCF:12:1,2011-04-03T19:00:00Z,26.4966,-82.1479,2.183,33.74,1111122 
SCCF RECON,ioos:station:SCCF:12:1,2011-04-03T20:00:00Z,26.4966,-82.1479,2.069,33.72,1111122 
SCCF RECON,ioos:station:SCCF:12:1,2011-04-03T21:00:00Z,26.4966,-82.1479,1.935,33.74,1111122 
SCCF RECON,ioos:station:SCCF:12:1,2011-04-03T22:00:00Z,26.4966,-82.1479,1.829,33.86,1111122 
SCCF RECON,ioos:station:SCCF:12:1,2011-04-03T23:00:00Z,26.4966,-82.1479,1.74,33.77,1111122 
SCCF RECON,ioos:station:SCCF:12:1,2011-04-04T00:00:00Z,26.4966,-82.1479,1.671,33.74,1111122 
SCCF RECON,ioos:station:SCCF:12:1,2011-04-04T01:00:00Z,26.4966,-82.1479,1.67,33.72,1111122 
SCCF RECON,ioos:station:SCCF:12:1,2011-04-04T02:00:00Z,26.4966,-82.1479,1.756,33.73,1111122 
SCCF RECON,ioos:station:SCCF:12:1,2011-04-04T03:00:00Z,26.4966,-82.1479,1.9,33.74,1111122 
SCCF RECON,ioos:station:SCCF:12:1,2011-04-04T04:00:00Z,26.4966,-82.1479,2.04,33.76,1111122 
SCCF RECON,ioos:station:SCCF:12:1,2011-04-04T05:00:00Z,26.4966,-82.1479,2.16,33.74,1111122 
SCCF RECON,ioos:station:SCCF:12:1,2011-04-04T06:00:00Z,26.4966,-82.1479,2.24,33.73,1111122 
SCCF RECON,ioos:station:SCCF:12:1,2011-04-04T07:00:00Z,26.4966,-82.1479,2.263,33.81,1111122 
SCCF RECON,ioos:station:SCCF:12:1,2011-04-04T08:00:00Z,26.4966,-82.1479,2.21,33.93,1111122 
SCCF RECON,ioos:station:SCCF:12:1,2011-04-04T09:00:00Z,26.4966,-82.1479,2.12,33.93,1111122 
SCCF RECON,ioos:station:SCCF:12:1,2011-04-04T10:00:00Z,26.4966,-82.1479,2.039,33.94,1111122 
SCCF RECON,ioos:station:SCCF:12:1,2011-04-04T11:00:00Z,26.4966,-82.1479,1.98,33.95,1111122 
SCCF RECON,ioos:station:SCCF:12:1,2011-04-04T12:00:00Z,26.4966,-82.1479,1.95,33.95,1111122 
SCCF RECON,ioos:station:SCCF:12:1,2011-04-04T13:00:00Z,26.4966,-82.1479,1.981,33.95,1111122 
SCCF RECON,ioos:station:SCCF:12:1,2011-04-04T14:00:00Z,26.4966,-82.1479,2.077,33.95,1111122 
SCCF RECON,ioos:station:SCCF:12:1,2011-04-04T15:00:00Z,26.4966,-82.1479,2.192,33.98,1111122 
SCCF RECON,ioos:station:SCCF:12:1,2011-04-04T16:00:00Z,26.4966,-82.1479,2.282,33.99,1111122 
SCCF RECON,ioos:station:SCCF:12:1,2011-04-04T17:00:00Z,26.4966,-82.1479,2.349,33.96,1111122 
SCCF RECON,ioos:station:SCCF:12:1,2011-04-04T18:00:00Z,26.4966,-82.1479,2.373,33.98,1111122 
SCCF RECON,ioos:station:SCCF:12:1,2011-04-04T19:00:00Z,26.4966,-82.1479,2.333,33.78,1111122 
SCCF RECON,ioos:station:SCCF:12:1,2011-04-04T20:00:00Z,26.4966,-82.1479,2.266,33.72,1111122 
SCCF RECON,ioos:station:SCCF:12:1,2011-04-04T21:00:00Z,26.4966,-82.1479,2.157,33.78,1111122 
SCCF RECON,ioos:station:SCCF:12:1,2011-04-04T22:00:00Z,26.4966,-82.1479,2.018,33.77,1111122 
SCCF RECON,ioos:station:SCCF:12:1,2011-04-04T23:00:00Z,26.4966,-82.1479,1.895,33.74,1111122 
SCCF RECON,ioos:station:SCCF:12:1,2011-04-05T00:00:00Z,26.4966,-82.1479,1.792,33.79,1111122 
SCCF RECON,ioos:station:SCCF:12:1,2011-04-05T01:00:00Z,26.4966,-82.1479,1.723,33.79,1111122 
SCCF RECON,ioos:station:SCCF:12:1,2011-04-05T02:00:00Z,26.4966,-82.1479,1.74,33.75,1111122 
SCCF RECON,ioos:station:SCCF:12:1,2011-04-05T03:00:00Z,26.4966,-82.1479,1.861,33.71,1111122 
SCCF RECON,ioos:station:SCCF:12:1,2011-04-05T04:00:00Z,26.4966,-82.1479,2.01,33.62,1111122 
SCCF RECON,ioos:station:SCCF:12:1,2011-04-05T05:00:00Z,26.4966,-82.1479,2.132,33.77,1111122 
SCCF RECON,ioos:station:SCCF:12:1,2011-04-05T06:00:00Z,26.4966,-82.1479,2.23,33.86,1111122 
SCCF RECON,ioos:station:SCCF:12:1,2011-04-05T07:00:00Z,26.4966,-82.1479,2.29,33.58,1111122 
SCCF RECON,ioos:station:SCCF:12:1,2011-04-05T08:00:00Z,26.4966,-82.1479,2.29,33.69,1111122 
SCCF RECON,ioos:station:SCCF:12:1,2011-04-05T09:00:00Z,26.4966,-82.1479,2.238,33.96,1111122 
SCCF RECON,ioos:station:SCCF:12:1,2011-04-05T10:00:00Z,26.4966,-82.1479,2.152,34.07,1111122 
SCCF RECON,ioos:station:SCCF:12:1,2011-04-05T11:00:00Z,26.4966,-82.1479,2.081,34.24,1111122 
SCCF RECON,ioos:station:SCCF:12:1,2011-04-05T12:00:00Z,26.4966,-82.1479,2.05,34.3,1111122 
SCCF RECON,ioos:station:SCCF:12:1,2011-04-05T13:00:00Z,26.4966,-82.1479,2.067,34.32,1111122 
SCCF RECON,ioos:station:SCCF:12:1,2011-04-05T14:00:00Z,26.4966,-82.1479,2.154,34.35,1111122 
SCCF RECON,ioos:station:SCCF:12:1,2011-04-05T15:00:00Z,26.4966,-82.1479,2.26,34.38,1111122 
SCCF RECON,ioos:station:SCCF:12:1,2011-04-05T16:00:00Z,26.4966,-82.1479,2.434,34.28,1111122 
SCCF RECON,ioos:station:SCCF:12:1,2011-04-05T17:00:00Z,26.4966,-82.1479,2.37,34.22,1111122 
SCCF RECON,ioos:station:SCCF:12:1,2011-04-05T18:00:00Z,26.4966,-82.1479,2.36,34.31,1111122 
SCCF RECON,ioos:station:SCCF:12:1,2011-04-05T19:00:00Z,26.4966,-82.1479,2.381,34.33,1111122 
SCCF RECON,ioos:station:SCCF:12:1,2011-04-05T20:00:00Z,26.4966,-82.1479,2.3,34.35,1111122 
SCCF RECON,ioos:station:SCCF:12:1,2011-04-05T21:00:00Z,26.4966,-82.1479,2.184,34.35,1111122 
SCCF RECON,ioos:station:SCCF:12:1,2011-04-05T22:00:00Z,26.4966,-82.1479,2.083,34.34,1111122 
SCCF RECON,ioos:station:SCCF:12:1,2011-04-05T23:00:00Z,26.4966,-82.1479,1.98,34.34,1111122 
SCCF RECON,ioos:station:SCCF:12:1,2011-04-06T00:00:00Z,26.4966,-82.1479,1.894,34.32,1111122 
SCCF RECON,ioos:station:SCCF:12:1,2011-04-06T01:00:00Z,26.4966,-82.1479,1.819,34.22,1111122 
SCCF RECON,ioos:station:SCCF:12:1,2011-04-06T02:00:00Z,26.4966,-82.1479,1.737,34.09,1111122 
SCCF RECON,ioos:station:SCCF:12:1,2011-04-06T03:00:00Z,26.4966,-82.1479,1.712,34.12,1111122 
SCCF RECON,ioos:station:SCCF:12:1,2011-04-06T04:00:00Z,26.4966,-82.1479,1.781,34.15,1111122 
SCCF RECON,ioos:station:SCCF:12:1,2011-04-06T05:00:00Z,26.4966,-82.1479,1.87,34.03,1111122 
SCCF RECON,ioos:station:SCCF:12:1,2011-04-06T06:00:00Z,26.4966,-82.1479,2.007,33.64,1111122 
SCCF RECON,ioos:station:SCCF:12:1,2011-04-06T07:00:00Z,26.4966,-82.1479,2.102,33.62,1111122 
SCCF RECON,ioos:station:SCCF:12:1,2011-04-06T08:00:00Z,26.4966,-82.1479,2.15,33.86,1111122 
SCCF RECON,ioos:station:SCCF:12:1,2011-04-06T09:00:00Z,26.4966,-82.1479,2.138,33.84,1111122 
SCCF RECON,ioos:station:SCCF:12:1,2011-04-06T10:00:00Z,26.4966,-82.1479,2.082,34.23,1111122 
SCCF RECON,ioos:station:SCCF:12:1,2011-04-06T11:00:00Z,26.4966,-82.1479,2.004,34.23,1111122 
SCCF RECON,ioos:station:SCCF:12:1,2011-04-06T12:00:00Z,26.4966,-82.1479,1.936,34.21,1111122 
SCCF RECON,ioos:station:SCCF:12:1,2011-04-06T13:00:00Z,26.4966,-82.1479,1.913,34.19,1111122 
SCCF RECON,ioos:station:SCCF:12:1,2011-04-06T14:00:00Z,26.4966,-82.1479,1.963,34.21,1111122 
SCCF RECON,ioos:station:SCCF:12:1,2011-04-06T15:00:00Z,26.4966,-82.1479,2.062,34.03,1111122 
SCCF RECON,ioos:station:SCCF:12:1,2011-04-06T16:00:00Z,26.4966,-82.1479,2.17,33.84,1111122 
SCCF RECON,ioos:station:SCCF:12:1,2011-04-06T17:00:00Z,26.4966,-82.1479,2.273,33.82,1111122 
SCCF RECON,ioos:station:SCCF:12:1,2011-04-06T18:00:00Z,26.4966,-82.1479,2.347,33.99,1111122 
SCCF RECON,ioos:station:SCCF:12:1,2011-04-06T19:00:00Z,26.4966,-82.1479,2.37,34.27,1111122 
SCCF RECON,ioos:station:SCCF:12:1,2011-04-06T20:00:00Z,26.4966,-82.1479,2.342,34.2,1111122 
SCCF RECON,ioos:station:SCCF:12:1,2011-04-06T21:00:00Z,26.4966,-82.1479,2.253,34.12,1111122 
SCCF RECON,ioos:station:SCCF:12:1,2011-04-06T22:00:00Z,26.4966,-82.1479,2.14,34.18,1111122 
SCCF RECON,ioos:station:SCCF:12:1,2011-04-06T23:00:00Z,26.4966,-82.1479,2.02,34.18,1111122 
SCCF RECON,ioos:station:SCCF:12:1,2011-04-07T00:00:00Z,26.4966,-82.1479,1.91,34.18,1111122 
SCCF RECON,ioos:station:SCCF:12:1,2011-04-07T01:00:00Z,26.4966,-82.1479,1.811,34.17,1111122 
SCCF RECON,ioos:station:SCCF:12:1,2011-04-07T02:00:00Z,26.4966,-82.1479,1.74,34.14,1111122 
SCCF RECON,ioos:station:SCCF:12:1,2011-04-07T03:00:00Z,26.4966,-82.1479,1.698,34.13,1111122 
SCCF RECON,ioos:station:SCCF:12:1,2011-04-07T04:00:00Z,26.4966,-82.1479,1.753,34.12,1111122 
SCCF RECON,ioos:station:SCCF:12:1,2011-04-07T05:00:00Z,26.4966,-82.1479,1.885,34.13,1111122 
SCCF RECON,ioos:station:SCCF:12:1,2011-04-07T06:00:00Z,26.4966,-82.1479,1.997,34.13,1111122 
SCCF RECON,ioos:station:SCCF:12:1,2011-04-07T07:00:00Z,26.4966,-82.1479,2.07,34.14,1111122 
SCCF RECON,ioos:station:SCCF:12:1,2011-04-07T08:00:00Z,26.4966,-82.1479,2.127,34.13,1111122 
SCCF RECON,ioos:station:SCCF:12:1,2011-04-07T09:00:00Z,26.4966,-82.1479,2.14,34.14,1111122 
SCCF RECON,ioos:station:SCCF:12:1,2011-04-07T10:00:00Z,26.4966,-82.1479,2.11,34.15,1111122 
SCCF RECON,ioos:station:SCCF:12:1,2011-04-07T11:00:00Z,26.4966,-82.1479,2.07,34.23,1111122 
SCCF RECON,ioos:station:SCCF:12:1,2011-04-07T12:00:00Z,26.4966,-82.1479,2.04,34.22,1111122 
SCCF RECON,ioos:station:SCCF:12:1,2011-04-07T13:00:00Z,26.4966,-82.1479,2.051,34.2,1111122 
SCCF RECON,ioos:station:SCCF:12:1,2011-04-07T14:00:00Z,26.4966,-82.1479,2.094,34.19,1111122 
SCCF RECON,ioos:station:SCCF:12:1,2011-04-07T15:00:00Z,26.4966,-82.1479,2.173,34.21,1111122 
SCCF RECON,ioos:station:SCCF:12:1,2011-04-07T16:00:00Z,26.4966,-82.1479,2.282,34.22,1111122 
SCCF RECON,ioos:station:SCCF:12:1,2011-04-07T17:00:00Z,26.4966,-82.1479,2.383,34.23,1111122 
SCCF RECON,ioos:station:SCCF:12:1,2011-04-07T18:00:00Z,26.4966,-82.1479,2.44,34.22,1111122 
SCCF RECON,ioos:station:SCCF:12:1,2011-04-07T19:00:00Z,26.4966,-82.1479,2.449,34.22,1111122 
SCCF RECON,ioos:station:SCCF:12:1,2011-04-07T20:00:00Z,26.4966,-82.1479,2.416,34.22,1111122 
SCCF RECON,ioos:station:SCCF:12:1,2011-04-07T21:00:00Z,26.4966,-82.1479,2.352,34.24,1111122 
SCCF RECON,ioos:station:SCCF:12:1,2011-04-07T22:00:00Z,26.4966,-82.1479,2.26,34.31,1111122 
SCCF RECON,ioos:station:SCCF:12:1,2011-04-07T23:00:00Z,26.4966,-82.1479,2.15,34.32,1111122 
SCCF RECON,ioos:station:SCCF:12:1,2011-04-08T00:00:00Z,26.4966,-82.1479,2.04,34.31,1111122 
SCCF RECON,ioos:station:SCCF:12:1,2011-04-08T01:00:00Z,26.4966,-82.1479,1.93,34.3,1111122 
SCCF RECON,ioos:station:SCCF:12:1,2011-04-08T02:00:00Z,26.4966,-82.1479,1.84,34.3,1111122 
SCCF RECON,ioos:station:SCCF:12:1,2011-04-08T03:00:00Z,26.4966,-82.1479,1.78,34.3,1111122 
SCCF RECON,ioos:station:SCCF:12:1,2011-04-08T04:00:00Z,26.4966,-82.1479,1.77,34.23,1111122 
SCCF RECON,ioos:station:SCCF:12:1,2011-04-08T05:00:00Z,26.4966,-82.1479,1.88,34.21,1111122 
SCCF RECON,ioos:station:SCCF:12:1,2011-04-08T06:00:00Z,26.4966,-82.1479,2.0,34.21,1111122 
SCCF RECON,ioos:station:SCCF:12:1,2011-04-08T07:00:00Z,26.4966,-82.1479,2.1,34.27,1111122 
SCCF RECON,ioos:station:SCCF:12:1,2011-04-08T08:00:00Z,26.4966,-82.1479,2.16,34.29,1111122 
SCCF RECON,ioos:station:SCCF:12:1,2011-04-08T09:00:00Z,26.4966,-82.1479,2.2,34.27,1111122 
SCCF RECON,ioos:station:SCCF:12:1,2011-04-08T10:00:00Z,26.4966,-82.1479,2.2,34.22,1111122 
SCCF RECON,ioos:station:SCCF:12:1,2011-04-08T11:00:00Z,26.4966,-82.1479,2.17,34.18,1111122 
SCCF RECON,ioos:station:SCCF:12:1,2011-04-08T12:00:00Z,26.4966,-82.1479,2.14,34.15,1111122 
SCCF RECON,ioos:station:SCCF:12:1,2011-04-08T13:00:00Z,26.4966,-82.1479,2.131,34.09,1111122 
SCCF RECON,ioos:station:SCCF:12:1,2011-04-08T14:00:00Z,26.4966,-82.1479,2.131,34.02,1111122 
SCCF RECON,ioos:station:SCCF:12:1,2011-04-08T15:00:00Z,26.4966,-82.1479,2.149,34.02,1111122 
SCCF RECON,ioos:station:SCCF:12:1,2011-04-08T16:00:00Z,26.4966,-82.1479,2.197,34.09,1111122 
SCCF RECON,ioos:station:SCCF:12:1,2011-04-08T17:00:00Z,26.4966,-82.1479,2.269,34.15,1111122 
SCCF RECON,ioos:station:SCCF:12:1,2011-04-08T18:00:00Z,26.4966,-82.1479,2.337,34.18,1111122 
SCCF RECON,ioos:station:SCCF:12:1,2011-04-08T19:00:00Z,26.4966,-82.1479,2.391,34.21,1111122 
SCCF RECON,ioos:station:SCCF:12:1,2011-04-08T20:00:00Z,26.4966,-82.1479,2.41,34.2,1111122 
SCCF RECON,ioos:station:SCCF:12:1,2011-04-08T21:00:00Z,26.4966,-82.1479,2.37,34.16,1111122 
SCCF RECON,ioos:station:SCCF:12:1,2011-04-08T22:00:00Z,26.4966,-82.1479,2.3,34.14,1111122 
SCCF RECON,ioos:station:SCCF:12:1,2011-04-08T23:00:00Z,26.4966,-82.1479,2.2,34.13,1111122 
SCCF RECON,ioos:station:SCCF:12:1,2011-04-09T00:00:00Z,26.4966,-82.1479,2.09,34.11,1111122 
SCCF RECON,ioos:station:SCCF:12:1,2011-04-09T01:00:00Z,26.4966,-82.1479,1.997,34.12,1111122 
SCCF RECON,ioos:station:SCCF:12:1,2011-04-09T02:00:00Z,26.4966,-82.1479,1.89,34.13,1111122 
SCCF RECON,ioos:station:SCCF:12:1,2011-04-09T03:00:00Z,26.4966,-82.1479,1.81,34.13,1111122 
SCCF RECON,ioos:station:SCCF:12:1,2011-04-09T04:00:00Z,26.4966,-82.1479,1.76,34.17,1111122 
SCCF RECON,ioos:station:SCCF:12:1,2011-04-09T05:00:00Z,26.4966,-82.1479,1.78,34.19,1111122 
SCCF RECON,ioos:station:SCCF:12:1,2011-04-09T06:00:00Z,26.4966,-82.1479,1.89,34.23,1111122 
SCCF RECON,ioos:station:SCCF:12:1,2011-04-09T07:00:00Z,26.4966,-82.1479,2.0,34.25,1111122 
SCCF RECON,ioos:station:SCCF:12:1,2011-04-09T08:00:00Z,26.4966,-82.1479,2.09,34.25,1111122 
SCCF RECON,ioos:station:SCCF:12:1,2011-04-09T09:00:00Z,26.4966,-82.1479,2.16,34.17,1111122 
SCCF RECON,ioos:station:SCCF:12:1,2011-04-09T10:00:00Z,26.4966,-82.1479,2.21,34.19,1111122 
SCCF RECON,ioos:station:SCCF:12:1,2011-04-09T11:00:00Z,26.4966,-82.1479,2.225,34.16,1111122 
SCCF RECON,ioos:station:SCCF:12:1,2011-04-09T12:00:00Z,26.4966,-82.1479,2.221,34.11,1111122 
SCCF RECON,ioos:station:SCCF:12:1,2011-04-09T13:00:00Z,26.4966,-82.1479,2.206,34.04,1111122 
SCCF RECON,ioos:station:SCCF:12:1,2011-04-09T14:00:00Z,26.4966,-82.1479,2.201,34.03,1111122 
SCCF RECON,ioos:station:SCCF:12:1,2011-04-09T15:00:00Z,26.4966,-82.1479,2.213,34.02,1111122 
SCCF RECON,ioos:station:SCCF:12:1,2011-04-09T16:00:00Z,26.4966,-82.1479,2.255,34.02,1111122 
SCCF RECON,ioos:station:SCCF:12:1,2011-04-09T17:00:00Z,26.4966,-82.1479,2.313,34.06,1111122 
SCCF RECON,ioos:station:SCCF:12:1,2011-04-09T18:00:00Z,26.4966,-82.1479,2.378,34.1,1111122 
SCCF RECON,ioos:station:SCCF:12:1,2011-04-09T19:00:00Z,26.4966,-82.1479,2.426,34.1,1111122 
SCCF RECON,ioos:station:SCCF:12:1,2011-04-09T20:00:00Z,26.4966,-82.1479,2.449,34.12,1111122 
SCCF RECON,ioos:station:SCCF:12:1,2011-04-09T21:00:00Z,26.4966,-82.1479,2.439,34.13,1111122 
SCCF RECON,ioos:station:SCCF:12:1,2011-04-09T22:00:00Z,26.4966,-82.1479,2.388,34.2,1111122 
SCCF RECON,ioos:station:SCCF:12:1,2011-04-09T23:00:00Z,26.4966,-82.1479,2.321,34.19,1111122 
SCCF RECON,ioos:station:SCCF:12:1,2011-04-10T00:00:00Z,26.4966,-82.1479,2.229,34.21,1111122 
SCCF RECON,ioos:station:SCCF:12:1,2011-04-10T01:00:00Z,26.4966,-82.1479,2.125,34.2,1111122 
SCCF RECON,ioos:station:SCCF:12:1,2011-04-10T02:00:00Z,26.4966,-82.1479,2.023,34.24,1111122 
SCCF RECON,ioos:station:SCCF:12:1,2011-04-10T03:00:00Z,26.4966,-82.1479,1.917,34.24,1111122 
SCCF RECON,ioos:station:SCCF:12:1,2011-04-10T04:00:00Z,26.4966,-82.1479,1.825,34.26,1111122 
SCCF RECON,ioos:station:SCCF:12:1,2011-04-10T05:00:00Z,26.4966,-82.1479,1.768,34.25,1111122 
SCCF RECON,ioos:station:SCCF:12:1,2011-04-10T06:00:00Z,26.4966,-82.1479,1.769,34.27,1111122 
SCCF RECON,ioos:station:SCCF:12:1,2011-04-10T07:00:00Z,26.4966,-82.1479,1.85,34.26,1111122 
SCCF RECON,ioos:station:SCCF:12:1,2011-04-10T08:00:00Z,26.4966,-82.1479,1.96,34.25,1111122 
SCCF RECON,ioos:station:SCCF:12:1,2011-04-10T09:00:00Z,26.4966,-82.1479,2.05,34.25,1111122 
SCCF RECON,ioos:station:SCCF:12:1,2011-04-10T10:00:00Z,26.4966,-82.1479,2.123,34.25,1111122 
SCCF RECON,ioos:station:SCCF:12:1,2011-04-10T11:00:00Z,26.4966,-82.1479,2.17,34.27,1111122 
SCCF RECON,ioos:station:SCCF:12:1,2011-04-10T12:00:00Z,26.4966,-82.1479,2.201,34.27,1111122 
SCCF RECON,ioos:station:SCCF:12:1,2011-04-10T13:00:00Z,26.4966,-82.1479,2.211,34.22,1111122 
SCCF RECON,ioos:station:SCCF:12:1,2011-04-10T14:00:00Z,26.4966,-82.1479,2.213,34.18,1111122 
SCCF RECON,ioos:station:SCCF:12:1,2011-04-10T15:00:00Z,26.4966,-82.1479,2.22,34.14,1111122 
SCCF RECON,ioos:station:SCCF:12:1,2011-04-10T16:00:00Z,26.4966,-82.1479,2.24,34.12,1111122 
SCCF RECON,ioos:station:SCCF:12:1,2011-04-10T17:00:00Z,26.4966,-82.1479,2.261,34.12,1111122 
SCCF RECON,ioos:station:SCCF:12:1,2011-04-10T18:00:00Z,26.4966,-82.1479,2.294,34.15,1111122 
SCCF RECON,ioos:station:SCCF:12:1,2011-04-10T19:00:00Z,26.4966,-82.1479,2.341,34.18,1111122 
SCCF RECON,ioos:station:SCCF:12:1,2011-04-10T20:00:00Z,26.4966,-82.1479,2.391,34.19,1111122 
SCCF RECON,ioos:station:SCCF:12:1,2011-04-10T21:00:00Z,26.4966,-82.1479,2.431,34.19,1111122 
SCCF RECON,ioos:station:SCCF:12:1,2011-04-10T22:00:00Z,26.4966,-82.1479,2.43,34.18,1111122 
SCCF RECON,ioos:station:SCCF:12:1,2011-04-10T23:00:00Z,26.4966,-82.1479,2.392,34.16,1111122 
SCCF RECON,ioos:station:SCCF:12:1,2011-04-11T00:00:00Z,26.4966,-82.1479,2.33,34.09,1111122 
SCCF RECON,ioos:station:SCCF:12:1,2011-04-11T01:00:00Z,26.4966,-82.1479,2.25,34.08,1111122 
SCCF RECON,ioos:station:SCCF:12:1,2011-04-11T02:00:00Z,26.4966,-82.1479,2.15,34.09,1111122 
SCCF RECON,ioos:station:SCCF:12:1,2011-04-11T03:00:00Z,26.4966,-82.1479,2.049,34.09,1111122 
SCCF RECON,ioos:station:SCCF:12:1,2011-04-11T04:00:00Z,26.4966,-82.1479,1.94,34.1,1111122 
SCCF RECON,ioos:station:SCCF:12:1,2011-04-11T05:00:00Z,26.4966,-82.1479,1.847,34.15,1111122 
SCCF RECON,ioos:station:SCCF:12:1,2011-04-11T06:00:00Z,26.4966,-82.1479,1.78,34.15,1111122 
SCCF RECON,ioos:station:SCCF:12:1,2011-04-11T07:00:00Z,26.4966,-82.1479,1.77,34.23,1111122 
SCCF RECON,ioos:station:SCCF:12:1,2011-04-11T08:00:00Z,26.4966,-82.1479,1.849,34.26,1111122 
SCCF RECON,ioos:station:SCCF:12:1,2011-04-11T09:00:00Z,26.4966,-82.1479,1.96,34.29,1111122 
SCCF RECON,ioos:station:SCCF:12:1,2011-04-11T10:00:00Z,26.4966,-82.1479,2.05,34.29,1111122 
SCCF RECON,ioos:station:SCCF:12:1,2011-04-11T11:00:00Z,26.4966,-82.1479,2.13,34.17,1111122 
SCCF RECON,ioos:station:SCCF:12:1,2011-04-11T12:00:00Z,26.4966,-82.1479,2.189,34.22,1111122 
SCCF RECON,ioos:station:SCCF:12:1,2011-04-11T13:00:00Z,26.4966,-82.1479,2.23,34.18,1111122 
SCCF RECON,ioos:station:SCCF:12:1,2011-04-11T14:00:00Z,26.4966,-82.1479,2.25,34.15,1111122 
SCCF RECON,ioos:station:SCCF:12:1,2011-04-11T15:00:00Z,26.4966,-82.1479,2.263,34.14,1111122 
SCCF RECON,ioos:station:SCCF:12:1,2011-04-11T16:00:00Z,26.4966,-82.1479,2.24,34.1,1111122 
SCCF RECON,ioos:station:SCCF:12:1,2011-04-11T17:00:00Z,26.4966,-82.1479,2.2,34.11,1111122 